{"data":{"norad_id":67165,"intl_designator":"2025-303C","name":"STARLINK-36186","alt_names":[],"object_type":"PAYLOAD","status":"ACTIVE","operator":null,"country":"US","launch_date":"2025-12-17","launch_site_code":"AFETR","launch_vehicle":null,"mission":null,"orbit_class":"UNKNOWN","rcs_meters":null,"size_class":null,"mass_kg":null,"dimensions":null,"purposes":["comms"],"wikipedia_slug":null,"has_3d_model":false,"image_url":null,"decayed_at":null,"tle_current":{"epoch":"2026-09-19T18:54:22.984128Z","epoch_age_seconds":140032,"freshness":"FRESH","line1":"1 67165U 25303C   26262.78776602  .00011412  00000+0  42347-3 0  9990","line2":"2 67165  42.9986 294.2332 0001634 277.4502  82.6164 15.27587773 42422","mean_motion":15.27587773,"eccentricity":0.0001634,"inclination_deg":42.9986,"raan_deg":294.2332,"arg_perigee_deg":277.4502,"mean_anomaly_deg":82.6164,"bstar":0.00042347,"rev_number":4242,"period_min":94.266269045347,"perigee_km":481.90470697508,"apogee_km":484.14693498497,"semimajor_km":6861.16282098,"source":"CELESTRAK","updated_at":"2026-09-21T09:00:36.110256Z"}}}